Location: Henry Coe State Park
(37.1875°N, 121.5503°W)
Time: 22:48:19
(UTC-08:00)

Daily predictions for brighter satellites

Satellite Brightness Start Highest point End
(mag) Time Altitude Azimuth Time Altitude Azimuth Time Altitude Azimuth
CORIOLIS 4.4 17:16:51 10° SE 17:22:03 50° ENE 17:27:15 10° N
Cosmos 1048 Rocket 4.0 17:18:56 10° NNW 17:24:14 71° ENE 17:29:34 10° SSE
Cosmos 2341 Rocket 4.0 17:19:41 10° N 17:25:56 82° E 17:32:09 10° S
CZ-3B DEB 1.9 17:23:01 10° SSW 17:25:59 54° SE 17:33:09 10° NE
Cosmos 1295 Rocket 4.5 17:20:18 10° N 17:26:23 61° E 17:32:22 10° SSE
Cosmos 158 Rocket 4.2 17:21:30 10° N 17:26:43 50° ENE 17:31:48 10° SE
Cosmos 2278 Rocket 3.3 17:22:39 10° SSE 17:27:04 24° ESE 17:31:30 10° NE
COSMOS 2406 3.3 17:22:12 10° NNW 17:27:48 55° ENE 17:33:25 10° SE
CZ-3A R/B 3.5 17:24:22 10° WSW 17:28:23 50° NNW 17:46:26 10° NE
Cosmos 1484 Rocket 3.9 17:27:29 10° ESE 17:30:26 22° ENE 17:33:21 10° NNE
CZ-2C R/B 2.4 17:29:34 10° SSE 17:34:26 75° ENE 17:39:30 10° N
SPOT 3 Rocket 3.5 17:31:39 10° SSE 17:36:51 82° ENE 17:42:03 10° NNW
ASTRO F (AKARI) 4.4 17:33:54 10° NNE 17:36:59 51° E 17:40:02 10° S
Meteor 1-5 Rocket 4.1 17:33:16 10° N 17:38:40 70° E 17:44:12 10° SSE
Cosmos 1238 Rocket 2.7 17:38:24 10° SSE 17:41:11 34° E 17:43:54 10° NNE
Okean 1 4.0 17:46:42 10° SSE 17:50:19 32° E 17:53:41 11° NNE
IDEFIX/ARIANE 42P 2.7 17:46:00 10° S 17:51:12 79° WSW 17:56:25 10° NNW
COSMOS 2441 4.4 17:47:09 10° SSE 17:51:54 57° ENE 17:56:41 10° N
Cosmos 1536 3.9 17:48:18 10° NNW 17:52:14 48° W 17:56:08 10° SSW
Cosmos 2082 Rocket 3.9 17:50:56 10° NNE 17:52:44 13° NE 17:52:44 13° NE
USA 32 4.0 17:50:03 10° S 17:55:16 90° ENE 18:00:31 10° N
Hubble Space Telescope 3.2 17:54:51 10° SW 17:57:38 17° SSW 18:00:24 10° SSE
COSMO-SKYMED 1 2.6 17:54:54 10° NNE 17:59:11 57° E 18:03:26 10° S
OPS 8737 4.3 17:57:30 10° SSW 18:00:58 66° ESE 18:02:34 26° NE
Cosmos 1544 Rocket 3.5 17:57:08 10° N 18:01:35 76° E 18:06:02 10° S
BREEZE-M R/B 4.4 17:49:48 10° SW 18:01:55 82° SE 18:05:51 21° ENE
Cosmos 1975 Rocket 4.4 17:58:05 10° SSW 18:02:08 40° W 18:06:13 10° N
Cosmos 1500 4.2 17:59:43 10° NNE 18:03:20 25° E 18:06:11 10° SE
Cosmos 864 Rocket 4.4 17:59:48 10° N 18:06:05 70° E 18:12:21 10° SSE
Meteor 1-28 Rocket 3.8 18:04:52 25° NE 18:06:19 35° E 18:09:49 10° SSE
SMAP 4.1 18:02:27 10° S 18:06:56 48° W 18:11:27 10° NNW
SL-24 DEB 4.2 18:02:57 10° N 18:07:43 72° E 18:12:24 10° S
Meteor 1-18 Rocket 4.1 18:02:13 10° S 18:07:47 79° E 18:13:30 10° NNE
CZ-4 R/B 3.6 18:07:00 10° SSW 18:10:40 29° W 18:14:20 10° NW
Cosmos 1346 Rocket 3.2 18:09:54 10° SSE 18:13:33 37° E 18:14:10 35° ENE
MSX 4.0 18:08:52 10° S 18:14:36 75° WSW 18:20:23 10° NNW
Cosmos 1812 2.9 18:14:30 10° SSW 18:18:20 72° W 18:22:12 10° N
Cosmos 1536 Rocket 3.5 18:14:05 10° S 18:18:32 87° E 18:23:01 10° N
NOAA 12 4.3 18:16:24 10° SE 18:21:25 46° ENE 18:26:26 10° N
OTV 4 0.8 18:23:31 10° W 18:26:28 54° SSW 18:26:41 52° S
Cosmos 494 Rocket 3.9 18:22:48 10° NNW 18:28:03 76° ENE 18:33:18 10° SSE
Cosmos 1975 2.7 18:28:36 10° N 18:32:41 85° E 18:36:44 10° S
BREEZE M DEB (TANK) 4.4 18:30:13 10° NNW 18:33:57 30° NNE 18:34:57 29° NE
Cosmos 2251 Rocket 3.6 18:30:13 10° NNW 18:35:35 79° WSW 18:40:53 10° SSE
NOSS 3-3 (A) 3.9 18:30:01 10° SSW 18:36:09 88° ESE 18:39:53 27° NNE
NOSS 3-3 (C) 3.9 18:30:06 10° SSW 18:36:15 87° ESE 18:39:57 28° NNE
SL-27 R/B 3.7 18:35:04 10° NNW 18:38:35 44° WSW 18:42:03 10° S
Meteor 1-12 Rocket 4.5 18:33:33 10° NNW 18:39:18 73° W 18:45:08 10° S
Okean 1-7 Rocket 4.0 18:35:17 10° SSE 18:38:57 46° SE 18:38:57 46° SE
ISS -1.1 18:41:45 10° WNW 18:44:12 19° NNW 18:44:12 19° NNW
Cosmos 1844 Rocket 4.3 18:40:22 10° WSW 18:45:15 30° WNW 18:50:12 10° N
ATLAS 2AS CENTAUR R/B 3.0 18:39:25 10° NNW 18:47:31 85° WSW 18:54:57 10° SSE
Meteor 2-21 Rocket 4.3 18:41:58 10° N 18:48:11 70° E 18:54:17 10° SSE
GEOS 3 Rocket 3.9 18:45:34 10° SSE 18:50:38 64° WSW 18:55:44 10° NW
Cosmos 921 Rocket 4.5 18:47:19 10° S 18:49:08 24° SSE 18:49:08 24° SSE
Cosmos 2297 3.6 18:47:28 10° S 18:53:03 64° ESE 18:53:32 61° E
Meteor 2-16 Rocket 4.3 18:48:33 10° N 18:54:35 64° E 19:00:36 10° SSE
SL-8 R/B 3.7 18:49:56 10° WSW 18:54:41 68° NNW 18:55:04 65° N
SL-24 R/B - RUBIN 2 4.4 18:49:00 10° SSW 18:55:07 70° ESE 18:56:35 53° ENE
Timation 2 Rocket 4.2 18:51:36 10° NNW 18:58:15 52° ENE 18:58:19 52° ENE
Meteor 1-19 Rocket 4.1 18:53:15 10° S 18:58:58 75° E 19:00:14 55° NNE
Cosmos 1535 Rocket 4.4 18:52:59 10° N 18:59:14 61° E 19:05:22 10° SSE
BREEZE M DEB (TANK) 2.9 18:53:30 10° WSW 19:01:05 58° NW 19:01:08 58° NW
Cosmos 1241 Rocket 4.4 19:00:13 10° NNW 19:06:52 86° ENE 19:09:19 42° SSE
Timation 1 Rocket 4.2 19:02:22 10° SSW 19:07:54 68° SE 19:07:54 68° SE
Cosmos 2278 Rocket 3.3 19:05:31 10° SW 19:10:50 42° WNW 19:13:52 23° N
Meteor 1-13 Rocket 4.5 19:07:10 10° SSW 19:12:44 66° W 19:15:31 31° N
Tiangong 1 4.3 19:09:54 10° SW 19:10:03 11° SW 19:10:03 11° SW
Cosmos 2239 Rocket 4.3 19:12:01 10° N 19:18:16 88° ENE 19:24:26 10° S
Cosmos 1821 Rocket 4.4 19:19:58 10° N 19:30:13 22° S 19:32:10 10° S
Cosmos 2082 Rocket 3.9 19:32:40 10° NNW 19:34:39 23° NNW 19:34:39 23° NNW
ATLAS 3B CENTAUR R/B 3.8 19:49:34 10° WSW 19:59:39 39° SSW 19:59:39 39° SSW
CZ-3B DEB 4.4 19:57:28 10° WNW 20:02:59 32° N 20:03:16 31° N
FALCON 9 R/B 4.1 20:22:54 10° W 20:31:06 37° W 20:31:06 37° W
